Temperature
-0 1 1 1 1 2 2 2 2 2 2 2 2 1 0 1 1 1 2 2 3 3 4 4 4 5 5 5 6 6 6 6 6 6 6 6 6 6 6 5 5 5 5 5
-1 1 1 1 1 1 2 2 2 2 2 1 0 0 0 0 0 0 0 1 2 2 3 3 4 4 4 5 5 5 5 6 5 5 5 5 5 5 5 5 5 4 4 4
-1 -1 0 0 0 1 1 1 1 2 1 -0 -0 -1 -0 -0 -0 -0 -0 0 1 2 2 2 3 3 4 4 4 4 5 4 4 5 5 4 4 4 4 4 4 4 4 4
-2 -1 -0 0 -1 -1 -0 -1 -1 -0 -0 -1 -1 -1 -0 -0 -0 -0 -0 0 1 1 2 2 2 2 3 3 3 3 4 4 4 4 4 4 4 4 4 4 3 3 3 3
-3 -2 -2 -1 -2 -2 -1 -1 -1 -1 -1 -2 -1 -1 -1 -0 -0 -0 -0 -0 0 1 1 1 1 2 2 2 2 3 3 3 3 3 3 3 3 3 3 3 3 3 2 2
-3 -2 -1 -1 -2 -3 -2 -1 -2 -2 -2 -2 -2 -1 -2 -1 -1 -1 -1 -0 -0 0 0 1 1 1 1 2 2 2 2 2 2 2 2 2 2 2 2 2 2 2 2 2
-3 -3 -3 -3 -4 -2 -1 -1 -3 -2 -2 -3 -3 -2 -2 -2 -1 -1 -1 -1 -1 -0 -0 0 0 0 1 1 1 1 1 1 1 1 1 1 1 1 1 1 1 1 1 1
-4 -3 -2 -4 -4 -3 -3 -3 -3 -3 -3 -3 -3 -3 -3 -2 -2 -2 -1 -1 -1 -1 -1 -1 -1 -0 -0 0 0 0 0 0 1 1 1 1 1 0 0 0 0 0 0 0
-5 -4 -4 -4 -4 -3 -3 -3 -3 -3 -3 -3 -3 -3 -3 -3 -3 -3 -2 -2 -2 -2 -1 -1 -1 -1 -1 -1 -1 -0 -0 -0 0 0 -0 -0 -0 -0 -0 -0 -0 -0 -1 -1
-6 -5 -5 -4 -4 -4 -4 -4 -3 -3 -3 -3 -4 -4 -3 -3 -3 -3 -3 -3 -3 -2 -2 -2 -2 -1 -1 -1 -1 -1 -1 -1 -1 -1 -1 -1 -1 -1 -1 -1 -1 -1 -1 -1
-7 -6 -5 -4 -4 -4 -4 -4 -4 -4 -4 -4 -4 -4 -4 -4 -4 -4 -4 -4 -3 -3 -3 -2 -2 -2 -2 -2 -2 -1 -1 -1 -1 -1 -1 -1 -1 -1 -2 -2 -2 -2 -2 -2
-6 -5 -6 -5 -4 -4 -4 -5 -4 -4 -4 -4 -4 -4 -4 -4 -4 -4 -4 -4 -4 -3 -3 -3 -3 -3 -2 -2 -2 -2 -2 -2 -2 -2 -2 -2 -2 -2 -2 -2 -2 -3 -3 -3
-5 -5 -5 -5 -5 -5 -5 -5 -5 -5 -5 -5 -4 -4 -4 -5 -5 -4 -4 -4 -4 -4 -4 -4 -3 -3 -3 -3 -3 -3 -3 -2 -2 -2 -2 -2 -2 -2 -2 -3 -3 -3 -3 -3
-5 -5 -6 -5 -5 -5 -5 -5 -5 -5 -5 -5 -5 -5 -5 -5 -5 -5 -5 -5 -4 -4 -4 -4 -4 -4 -4 -4 -4 -3 -3 -3 -3 -3 -3 -3 -3 -3 -3 -3 -3 -3 -3 -3
-6 -6 -6 -6 -6 -6 -6 -6 -6 -6 -5 -5 -5 -5 -5 -5 -5 -5 -5 -5 -5 -5 -5 -5 -4 -4 -4 -4 -4 -4 -4 -3 -3 -3 -4 -4 -4 -4 -4 -4 -4 -4 -4 -4
-6 -6 -6 -6 -6 -6 -6 -6 -6 -6 -6 -6 -6 -6 -6 -6 -6 -6 -5 -5 -5 -5 -5 -5 -5 -5 -5 -4 -4 -4 -4 -4 -4 -4 -4 -4 -4 -4 -4 -4 -4 -4 -4 -4
-7 -7 -6 -6 -6 -6 -6 -6 -6 -6 -6 -6 -6 -6 -6 -6 -6 -6 -6 -6 -6 -6 -6 -5 -5 -5 -5 -5 -5 -5 -4 -5 -4 -4 -4 -4 -5 -5 -5 -5 -5 -5 -5 -5
-6 -6 -6 -6 -6 -6 -6 -6 -6 -6 -6 -6 -6 -6 -6 -6 -6 -6 -6 -6 -6 -6 -6 -6 -6 -5 -5 -5 -5 -5 -5 -5 -5 -5 -5 -5 -5 -5 -5 -5 -6 -6 -6 -6
-6 -6 -6 -6 -6 -6 -6 -6 -6 -6 -6 -7 -7 -7 -7 -7 -7 -7 -7 -7 -7 -6 -6 -6 -6 -6 -6 -6 -6 -5 -5 -5 -5 -5 -5 -6 -6 -6 -6 -6 -6 -6 -6 -6
-6 -6 -6 -6 -6 -6 -6 -6 -6 -7 -7 -7 -7 -7 -7 -7 -7 -7 -7 -7 -7 -7 -7 -7 -6 -6 -6 -6 -6 -6 -6 -6 -6 -6 -6 -6 -6 -6 -6 -6 -6 -6 -6 -6
-6 -6 -6 -6 -6 -6 -7 -7 -7 -7 -7 -7 -7 -7 -7 -7 -7 -7 -7 -7 -7 -7 -7 -7 -7 -7 -7 -6 -6 -6 -6 -6 -6 -6 -6 -6 -6 -7 -7 -7 -7 -7 -7 -7
-6 -6 -6 -7 -7 -7 -7 -7 -7 -7 -7 -7 -7 -8 -8 -7 -8 -8 -7 -7 -7 -7 -7 -7 -7 -7 -7 -7 -7 -7 -7 -7 -7 -7 -7 -7 -7 -7 -7 -7 -7 -7 -7 -7
-6 -6 -7 -7 -7 -7 -7 -7 -7 -8 -8 -8 -8 -8 -8 -8 -8 -8 -8 -8 -8 -8 -8 -7 -7 -7 -7 -7 -7 -7 -7 -7 -7 -7 -7 -7 -7 -7 -7 -7 -7 -7 -7 -7
-7 -7 -7 -7 -7 -7 -7 -7 -8 -8 -8 -8 -8 -8 -8 -8 -8 -8 -8 -8 -8 -8 -8 -8 -8 -8 -8 -7 -7 -7 -7 -7 -7 -7 -7 -7 -8 -8 -8 -8 -7 -7 -7 -7
-7 -7 -7 -7 -7 -7 -8 -8 -8 -8 -8 -8 -8 -8 -9 -9 -8 -8 -8 -8 -8 -8 -8 -8 -8 -8 -8 -8 -8 -8 -8 -8 -8 -8 -8 -8 -8 -8 -8 -8 -8 -8 -8 -8
-7 -8 -8 -8 -8 -8 -8 -8 -8 -8 -8 -8 -9 -9 -9 -9 -9 -9 -9 -8 -8 -8 -8 -8 -8 -8 -8 -8 -8 -8 -8 -8 -8 -8 -8 -8 -8 -8 -8 -8 -8 -8 -8 -8
-8 -8 -8 -8 -8 -8 -8 -8 -8 -8 -9 -9 -9 -9 -9 -9 -9 -9 -9 -9 -9 -9 -9 -8 -8 -8 -8 -8 -8 -8 -8 -8 -8 -8 -8 -8 -8 -8 -8 -8 -8 -8 -8 -8
Wind_Speed
4 4 2 3 5 4 5 6 6 5 5 6 4 3 3 2 2 3 3 3 3 2 1 2 2 2 2 2 1 2 3 4 3 3 3 4 4 4 3 3 3 3 3 3
3 2 2 4 6 7 8 6 6 6 8 4 3 2 2 1 1 1 2 2 2 2 2 2 2 2 2 2 2 2 3 3 4 4 4 4 4 4 4 3 3 2 2 2
3 4 2 5 6 7 5 4 5 7 6 2 2 3 3 2 1 1 1 2 2 2 1 1 1 1 1 1 1 2 3 4 4 4 4 4 4 4 4 3 3 2 2 1
1 2 4 5 2 2 3 3 3 3 3 3 3 2 2 2 1 2 1 1 2 1 1 1 1 2 2 2 2 3 3 4 3 4 4 4 4 4 3 2 2 1 1 0
1 1 5 5 3 1 2 3 3 3 3 2 1 1 3 2 1 1 2 2 1 1 0 1 1 2 2 2 3 3 3 3 3 4 4 4 4 3 2 3 2 1 1 1
1 1 4 4 3 3 0 3 2 1 2 2 0 1 4 3 2 2 2 1 1 1 2 2 2 2 3 3 3 3 2 2 2 3 4 4 3 3 2 2 2 2 2 1
2 3 5 4 5 1 2 4 3 2 2 2 2 3 2 2 2 2 2 2 2 2 2 1 1 2 3 3 3 2 2 3 3 3 4 4 3 3 3 3 3 2 2 2
2 3 5 3 1 2 4 3 2 2 2 2 2 1 1 1 2 2 2 2 2 3 2 2 2 3 3 2 2 2 3 4 4 3 3 4 4 3 3 3 3 2 2 2
5 5 3 2 3 3 2 3 3 2 2 1 1 1 1 1 1 2 1 1 2 2 2 2 2 2 3 1 2 2 4 4 4 4 4 3 4 4 3 3 2 1 1 1
3 5 5 4 3 4 3 3 3 3 3 1 1 1 1 0 1 1 1 1 1 2 2 2 2 2 2 1 2 3 3 3 3 3 3 3 2 2 2 2 1 1 1 1
4 6 5 4 3 3 3 3 3 3 2 1 1 1 1 1 1 1 1 0 1 1 1 1 2 2 2 1 2 3 3 3 3 3 3 3 2 2 1 1 1 1 1 1
5 5 3 5 4 3 3 3 3 2 3 2 1 2 1 1 1 1 1 0 1 1 1 1 2 2 2 1 2 3 3 2 2 2 2 2 2 2 3 2 2 2 2 2
4 2 2 3 3 3 2 3 3 2 2 2 1 1 1 1 1 0 0 0 1 1 1 1 1 2 2 2 2 2 2 2 2 2 2 2 2 2 1 2 3 4 4 5
3 1 2 2 2 3 2 2 2 2 2 1 1 0 0 1 1 1 1 1 1 1 1 1 1 2 2 1 2 2 2 2 2 2 1 1 1 1 1 1 1 2 4 5
2 2 3 2 2 2 2 2 2 2 3 3 1 1 0 1 1 1 1 0 1 1 1 1 1 1 2 1 2 2 1 1 1 1 1 1 1 1 1 1 1 1 2 3
2 1 1 1 2 2 2 2 1 2 2 2 2 1 1 0 0 0 0 1 2 1 1 1 0 1 1 1 2 2 1 2 2 2 2 2 1 1 1 1 1 1 2 2
2 2 2 2 3 2 2 2 2 2 2 2 2 1 0 1 1 1 1 0 1 1 1 1 1 0 0 1 1 1 1 2 2 2 2 1 1 1 1 1 0 1 1 2
4 4 4 4 3 3 2 2 2 2 2 2 1 1 0 0 1 1 0 1 1 1 1 0 0 1 1 1 1 1 2 1 1 1 1 1 1 1 1 1 0 1 2 2
3 3 3 2 2 2 2 2 2 2 2 1 0 0 1 1 1 1 0 1 1 1 2 1 0 1 1 1 1 2 2 2 1 1 1 1 1 1 1 0 0 1 1 2
2 2 2 1 1 1 2 2 1 2 2 0 0 0 1 1 1 0 0 0 1 2 1 1 0 0 0 1 1 2 2 2 2 1 1 1 1 0 0 0 1 1 2 2
2 2 1 1 1 1 2 1 1 1 2 1 1 1 1 2 1 1 1 1 2 1 1 1 0 0 1 1 1 2 2 2 1 1 1 1 0 0 0 1 1 1 2 2
2 2 2 2 1 2 2 1 1 1 1 1 1 1 1 1 1 1 1 2 2 2 0 0 0 1 1 1 2 2 2 1 1 1 1 1 0 0 1 1 1 2 2 2
2 2 2 2 2 2 2 1 1 1 1 2 1 2 2 2 1 1 2 1 1 1 0 1 1 1 1 1 2 2 2 2 1 1 1 1 1 1 1 1 2 2 2 2
2 2 2 2 1 1 2 2 2 1 1 2 2 2 2 1 1 1 2 2 2 1 0 1 1 0 0 1 1 1 1 1 1 1 1 1 1 1 1 2 2 2 2 3
3 2 2 2 2 2 2 2 1 1 1 1 2 2 1 1 1 1 1 1 2 1 1 1 1 1 1 1 1 1 1 1 2 2 2 1 1 2 2 2 2 2 2 3
2 2 3 3 3 2 2 1 1 1 1 1 2 1 1 1 1 1 1 1 1 1 1 0 1 1 1 1 1 1 1 1 1 1 1 1 2 2 2 2 2 2 3 3
2 2 2 2 2 2 2 2 2 2 2 2 2 1 1 1 1 1 1 1 1 0 0 0 0 0 0 0 0 0 1 1 1 1 1 1 2 2 2 3 3 3 3 4
Wind_Direction
264 269 238 246 247 228 215 211 217 235 245 271 289 300 316 342 29 37 29 26 22 17 24 47 39 36 41 39 68 108 121 130 136 136 135 132 133 134 131 135 142 145 158 170
309 302 274 277 258 237 241 235 227 243 260 265 290 337 340 345 19 21 359 358 357 2 21 31 31 27 33 34 39 100 118 127 126 126 125 126 129 127 122 116 118 126 142 167
288 315 341 273 249 223 214 210 211 233 244 266 288 294 287 283 279 284 309 328 335 337 351 1 4 16 34 46 59 94 113 121 124 125 122 125 125 118 117 118 115 129 136 154
300 22 237 253 311 219 212 251 238 241 267 267 261 275 312 306 262 282 289 299 313 327 349 4 17 33 45 54 78 95 109 113 116 118 119 120 120 119 119 119 123 133 142 165
153 245 274 296 310 300 223 265 256 236 266 295 315 356 329 332 306 268 270 270 276 285 27 49 46 53 69 63 76 84 91 97 121 127 126 124 121 120 120 116 112 113 136 128
147 210 250 276 313 312 216 278 304 234 230 245 344 288 287 335 2 3 353 11 60 72 76 70 42 65 81 74 74 75 80 89 100 118 124 127 127 119 110 118 115 96 61 43
197 233 266 291 304 321 180 260 306 287 247 230 242 241 265 342 8 28 40 47 72 82 76 70 69 84 82 70 55 42 66 79 82 101 116 120 113 108 112 103 92 78 58 21
175 208 260 318 33 175 242 294 302 303 285 244 253 288 337 11 21 37 45 48 66 74 55 41 70 92 83 62 28 43 76 82 84 94 102 106 110 103 102 102 92 76 64 32
200 223 268 276 253 278 292 290 292 288 290 264 261 280 334 2 11 33 44 38 57 82 59 34 42 90 96 43 37 66 81 83 83 85 91 102 115 114 105 101 99 81 60 24
259 272 278 283 297 312 303 289 300 295 286 270 247 267 309 353 12 23 26 48 69 75 66 34 33 47 70 52 56 91 97 94 95 98 97 94 99 106 109 109 104 82 42 355
258 281 308 304 288 297 314 324 328 324 307 260 227 242 242 281 316 324 341 7 87 103 95 40 39 44 50 57 87 99 96 94 93 94 105 98 83 80 94 128 166 172 239 268
237 243 230 273 304 317 319 319 315 318 324 321 223 221 238 261 263 262 302 14 85 95 91 61 49 40 28 37 100 110 102 95 98 96 95 96 88 56 44 51 45 23 358 345
238 267 246 276 312 319 305 307 315 306 287 298 300 232 217 230 256 234 252 158 145 138 112 87 54 26 9 23 78 101 112 111 111 107 104 100 100 96 60 31 37 40 26 7
258 274 285 282 292 316 321 324 339 347 337 315 303 319 162 192 203 213 239 234 175 142 119 92 61 14 355 30 74 90 100 113 114 119 118 110 108 108 100 60 12 2 2 8
270 225 238 280 313 330 346 7 21 4 359 356 7 18 52 216 234 238 238 186 115 114 114 105 80 351 349 37 76 84 89 100 104 107 108 109 100 88 80 61 27 354 354 1
278 287 270 283 290 314 342 346 340 325 333 333 338 332 306 244 237 244 83 139 142 163 195 163 203 311 347 75 83 78 88 108 104 105 102 98 90 86 83 81 36 9 356 349
192 249 251 273 278 292 296 285 274 284 302 302 298 302 359 72 68 48 18 64 154 193 208 182 226 290 70 88 91 97 101 109 102 95 101 107 108 103 97 86 40 353 331 339
216 226 229 236 245 263 289 297 289 284 279 279 297 350 59 147 204 257 303 52 65 31 359 295 210 81 84 85 97 115 115 110 106 110 107 104 99 106 105 100 21 333 327 335
230 235 240 242 242 241 261 277 283 285 285 284 297 290 278 260 244 246 120 96 98 325 312 296 105 78 99 129 104 121 126 123 110 101 102 104 71 72 81 62 311 307 313 325
225 227 223 239 252 248 263 278 283 295 300 292 122 20 332 306 289 257 134 219 253 248 247 243 133 111 144 159 130 126 135 133 127 114 100 104 96 60 28 328 299 297 304 310
234 242 244 245 266 280 270 265 252 277 304 312 225 246 270 291 284 192 162 286 300 273 238 231 123 164 155 156 142 134 141 140 140 143 142 143 136 52 324 310 303 300 302 304
234 235 245 248 252 286 294 282 256 262 294 299 278 266 273 290 294 286 250 245 273 282 323 160 204 212 188 160 133 142 150 152 151 150 161 174 178 233 287 296 298 299 298 295
233 233 237 240 243 267 297 291 259 245 255 262 260 258 253 257 242 231 276 280 272 266 220 193 218 216 171 132 137 151 164 169 171 178 188 194 208 235 262 280 288 293 295 295
229 233 235 242 232 243 276 286 281 267 256 265 267 261 255 267 283 262 260 275 295 300 261 234 238 216 108 104 130 151 169 179 184 191 198 205 221 242 258 273 286 293 295 295
219 222 224 219 227 241 247 264 292 289 277 285 287 283 271 241 236 266 280 271 280 312 336 296 295 329 60 96 136 160 177 194 198 198 207 214 225 238 253 266 276 283 290 293
216 223 230 234 234 230 225 224 240 253 254 275 291 287 289 295 264 259 264 263 272 291 319 2 5 3 63 125 161 175 185 223 267 260 227 228 229 236 251 266 274 281 288 296
218 226 231 247 246 220 211 214 224 236 233 233 260 274 272 270 261 257 258 265 276 292 325 34 43 90 152 160 170 191 211 227 238 244 244 243 241 243 255 266 279 291 298 302
Height
1479 1475 1475 1475 1474 1473 1474 1474 1475 1471 1470 1467 1467 1466 1466 1465 1464 1464 1464 1465 1465 1466 1467 1468 1469 1471 1473 1475 1476 1478 1481 1482 1485 1487 1490 1492 1494 1496 1498 1500 1502 1503 1504 1506
1480 1474 1474 1474 1471 1470 1470 1470 1471 1470 1469 1467 1467 1466 1466 1465 1465 1465 1464 1465 1465 1465 1466 1467 1468 1469 1471 1472 1474 1476 1478 1480 1482 1484 1487 1489 1491 1492 1494 1496 1498 1499 1501 1502
1483 1479 1474 1475 1470 1469 1468 1468 1468 1467 1467 1467 1467 1466 1466 1465 1465 1465 1465 1464 1464 1465 1465 1466 1467 1468 1470 1471 1472 1474 1476 1478 1480 1482 1484 1486 1488 1489 1491 1493 1494 1496 1497 1499
1487 1484 1481 1473 1470 1468 1468 1468 1468 1467 1466 1466 1465 1465 1465 1465 1465 1464 1464 1464 1464 1464 1465 1466 1466 1467 1468 1470 1471 1472 1474 1475 1478 1479 1481 1483 1485 1486 1488 1490 1491 1493 1494 1495
1490 1488 1481 1473 1470 1470 1469 1468 1467 1466 1466 1466 1465 1464 1464 1464 1464 1464 1464 1464 1464 1464 1464 1465 1465 1466 1467 1469 1470 1471 1472 1474 1476 1478 1479 1481 1483 1484 1485 1487 1489 1490 1491 1492
1491 1486 1481 1473 1472 1470 1471 1469 1466 1465 1465 1465 1464 1466 1465 1463 1463 1463 1463 1463 1463 1463 1464 1464 1465 1465 1467 1468 1469 1469 1471 1472 1474 1476 1478 1479 1481 1482 1483 1485 1486 1487 1488 1489
1490 1488 1481 1476 1472 1470 1473 1469 1467 1465 1464 1464 1464 1465 1464 1462 1462 1462 1462 1462 1462 1462 1463 1463 1464 1465 1466 1467 1467 1469 1470 1471 1473 1475 1477 1478 1479 1480 1482 1483 1484 1485 1486 1487
1491 1488 1482 1474 1472 1473 1471 1467 1465 1464 1463 1463 1462 1462 1461 1461 1461 1461 1461 1461 1461 1461 1462 1463 1464 1465 1465 1466 1467 1468 1469 1470 1472 1473 1475 1476 1478 1479 1480 1481 1482 1483 1484 1484
1486 1482 1476 1473 1471 1469 1468 1466 1465 1463 1463 1462 1461 1461 1460 1461 1461 1461 1461 1461 1461 1461 1461 1462 1463 1464 1464 1465 1466 1467 1468 1469 1471 1472 1474 1475 1476 1477 1478 1479 1480 1481 1481 1482
1482 1476 1473 1471 1469 1468 1467 1465 1464 1463 1462 1461 1460 1460 1460 1460 1460 1460 1460 1460 1460 1460 1461 1461 1462 1463 1464 1464 1465 1466 1467 1468 1470 1471 1472 1474 1475 1476 1476 1477 1478 1479 1479 1480
1480 1474 1471 1468 1467 1466 1465 1463 1462 1461 1461 1460 1459 1459 1459 1459 1459 1460 1460 1460 1460 1460 1460 1460 1461 1462 1463 1463 1464 1465 1466 1467 1468 1470 1471 1472 1473 1474 1475 1476 1477 1478 1478 1478
1475 1471 1470 1468 1466 1465 1463 1462 1461 1460 1459 1459 1459 1458 1458 1458 1459 1459 1459 1459 1459 1459 1459 1459 1460 1461 1461 1462 1463 1464 1465 1466 1467 1468 1470 1471 1472 1473 1474 1475 1476 1476 1476 1476
1469 1468 1468 1466 1465 1464 1463 1461 1460 1459 1458 1458 1458 1458 1457 1457 1458 1458 1458 1458 1458 1457 1458 1458 1459 1459 1460 1461 1462 1463 1464 1465 1466 1467 1468 1469 1470 1471 1472 1473 1474 1474 1474 1474
1467 1467 1465 1464 1464 1463 1461 1460 1459 1458 1458 1457 1457 1457 1456 1456 1456 1457 1457 1457 1457 1457 1457 1458 1458 1459 1460 1460 1461 1462 1463 1464 1465 1466 1467 1468 1469 1470 1470 1471 1472 1472 1472 1472
1465 1465 1464 1463 1462 1461 1460 1459 1458 1457 1457 1456 1456 1456 1455 1455 1455 1455 1456 1455 1455 1456 1456 1457 1457 1458 1459 1459 1460 1461 1462 1463 1464 1465 1466 1467 1468 1469 1469 1470 1470 1470 1470 1470
1463 1463 1462 1461 1460 1460 1459 1458 1457 1456 1456 1455 1455 1455 1455 1454 1454 1454 1454 1454 1454 1454 1455 1455 1456 1457 1458 1458 1459 1460 1461 1462 1462 1463 1464 1465 1466 1467 1468 1468 1468 1468 1468 1468
1461 1460 1460 1460 1459 1458 1458 1457 1457 1456 1455 1455 1454 1454 1453 1453 1453 1453 1453 1453 1453 1454 1454 1455 1455 1456 1456 1457 1458 1459 1459 1460 1461 1462 1463 1464 1465 1465 1466 1467 1467 1467 1467 1466
1459 1459 1459 1458 1458 1457 1456 1456 1456 1455 1455 1454 1453 1452 1452 1452 1451 1452 1452 1452 1452 1452 1453 1454 1454 1455 1455 1456 1457 1458 1458 1459 1460 1461 1462 1463 1463 1464 1465 1465 1465 1465 1465 1465
1457 1457 1457 1457 1457 1456 1455 1455 1454 1454 1453 1453 1452 1451 1451 1451 1451 1451 1451 1451 1451 1451 1452 1453 1453 1454 1454 1455 1456 1456 1457 1458 1459 1460 1460 1461 1462 1462 1463 1463 1463 1463 1463 1463
1455 1455 1455 1455 1455 1455 1454 1453 1453 1452 1452 1452 1451 1450 1450 1450 1450 1449 1449 1450 1450 1450 1451 1452 1452 1453 1453 1454 1455 1455 1456 1457 1458 1458 1459 1460 1460 1461 1461 1461 1461 1461 1461 1461
1453 1453 1453 1453 1453 1453 1452 1452 1451 1451 1450 1450 1450 1449 1449 1448 1448 1448 1448 1448 1449 1450 1450 1451 1451 1452 1452 1453 1454 1454 1455 1456 1457 1457 1458 1459 1459 1459 1460 1460 1459 1459 1459 1459
1451 1451 1451 1451 1451 1450 1450 1450 1450 1449 1449 1448 1448 1448 1447 1447 1447 1447 1447 1447 1448 1448 1449 1449 1450 1451 1451 1452 1452 1453 1454 1455 1456 1456 1457 1457 1457 1458 1458 1458 1457 1457 1457 1457
1449 1449 1449 1448 1448 1448 1448 1448 1447 1447 1447 1446 1446 1446 1445 1445 1445 1445 1445 1446 1446 1447 1447 1448 1449 1449 1450 1451 1451 1452 1453 1454 1454 1455 1455 1456 1456 1456 1456 1456 1455 1455 1455 1455
1446 1446 1446 1446 1446 1445 1445 1445 1445 1445 1444 1444 1444 1444 1444 1444 1444 1444 1444 1445 1445 1445 1446 1447 1447 1448 1448 1449 1450 1451 1451 1452 1452 1453 1453 1454 1454 1454 1454 1454 1453 1453 1453 1453
1443 1443 1443 1443 1442 1442 1442 1442 1442 1442 1442 1442 1442 1442 1442 1442 1442 1442 1443 1443 1444 1444 1444 1445 1446 1446 1447 1447 1448 1449 1449 1450 1451 1451 1451 1451 1452 1452 1452 1451 1451 1451 1451 1450
1440 1440 1440 1440 1440 1440 1440 1440 1439 1439 1439 1439 1440 1440 1440 1440 1440 1441 1441 1441 1442 1442 1443 1443 1444 1445 1445 1446 1446 1447 1447 1448 1448 1449 1449 1449 1449 1449 1449 1449 1449 1449 1449 1448
1436 1436 1437 1437 1437 1437 1437 1437 1437 1437 1437 1437 1437 1438 1438 1438 1438 1439 1439 1439 1440 1440 1441 1441 1442 1443 1443 1444 1444 1445 1445 1446 1446 1446 1447 1447 1447 1447 1447 1447 1447 1447 1447 1447